Location: Boitzum
(52.1496°N, 9.6943°E)
Time: 22:40:24
(UTC+00:00)

Cosmos 1745 Rocket - Visible Passes

Search period start: 18 April 2026 00:00
Search period end: 28 April 2026 00:00
Orbit: 952 x 997 km, 83.0° (Epoch: 18 April)

Date Brightness Start Highest point End Pass type
(mag) Time Alt. Az. Time Alt. Az. Time Alt. Az.
18 Apr 7.0 01:30:56 10° NNE 01:33:33 13° NE 01:36:10 10° ENE visible
18 Apr 4.9 03:14:25 10° N 03:20:31 54° ENE 03:26:31 10° SSE visible
19 Apr 6.6 01:54:52 10° NNE 01:59:16 20° ENE 02:03:37 10° ESE visible
19 Apr 7.1 19:04:19 10° W 19:07:53 15° NW 19:11:27 10° NNW visible
20 Apr 6.0 02:19:24 10° N 02:24:47 30° ENE 02:30:07 10° SE visible
21 Apr 7.1 01:01:23 10° NNE 01:03:00 11° NE 01:04:36 10° ENE visible
21 Apr 5.1 02:44:10 10° N 02:50:08 47° ENE 02:56:01 10° SE visible
22 Apr 6.7 01:24:49 10° NNE 01:28:46 17° NE 01:32:41 10° E visible
22 Apr 4.2 03:09:06 10° N 03:15:18 76° ENE 03:21:26 10° SSE visible
23 Apr 6.1 01:49:13 10° N 01:54:21 26° ENE 01:59:24 10° ESE visible
24 Apr 5.3 02:13:56 10° N 02:19:44 41° ENE 02:25:29 10° SE visible
25 Apr 6.7 00:54:49 10° NNE 00:58:15 15° NE 01:01:39 10° E visible
25 Apr 4.4 02:38:48 10° N 02:44:57 65° ENE 02:51:02 10° SSE visible
26 Apr 6.2 01:19:04 10° N 01:23:53 23° ENE 01:28:39 10° ESE visible
26 Apr 4.0 03:03:50 10° NNW 03:10:00 79° W 03:16:07 10° S visible
27 Apr 5.5 01:43:42 10° N 01:49:20 36° ENE 01:54:54 10° SE visible
